| Date | Time | Temp. (oF) | Dew Point (oF) | Rel. Hum. (%) | Press. (in.) | Wind Dir. (deg.) | Wind Speed (mph) | Hourly Rainfall (i n.) |
|
|---|---|---|---|---|---|---|---|---|---|
| 1 | 06/11 | 24:00 | 64 | 59 | 84 | 30.41 | 140 | 0 | 0.00 |
| 2 | 06/10 | 23:00 | 65 | 60 | 84 | 30.40 | 140 | 0 | 0.00 |
| 3 | 06/10 | 22:00 | 65 | 59 | 83 | 30.41 | 140 | 0 | 0.00 |
| 4 | 06/10 | 21:00 | 65 | 59 | 81 | 30.36 | 140 | 0 | 0.00 |
| 5 | 06/10 | 20:00 | 66 | 59 | 79 | 30.34 | 140 | 1 | 0.00 |
| 6 | 06/10 | 19:00 | 67 | 60 | 79 | 30.33 | 130 | 0 | 0.00 |
| 7 | 06/10 | 18:00 | 67 | 60 | 80 | 30.34 | 140 | 4 | 0.00 |
| 8 | 06/10 | 17:00 | 66 | 59 | 81 | 30.37 | 140 | 1 | 0.00 |
| 9 | 06/10 | 16:00 | 65 | 59 | 82 | 30.38 | 130 | 2 | 0.00 |
| 10 | 06/10 | 15:00 | 65 | 59 | 83 | 30.39 | 130 | 1 | 0.00 |
| 11 | 06/10 | 14:00 | 65 | 60 | 86 | 30.38 | 130 | 4 | 0.01 |
| 12 | 06/10 | 13:00 | 65 | 60 | 84 | 30.38 | 170 | 0 | 0.01 |
| 13 | 06/10 | 12:00 | 65 | 59 | 83 | 30.39 | 170 | 1 | 0.01 |
| 14 | 06/10 | 11:00 | 65 | 58 | 79 | 30.38 | 170 | 2 | 0.00 |
| 15 | 06/10 | 10:00 | 65 | 58 | 80 | 30.37 | 100 | 1 | 0.00 |
| 16 | 06/10 | 09:00 | 64 | 58 | 81 | 30.37 | 170 | 2 | 0.00 |
| 17 | 06/10 | 08:00 | 64 | 58 | 82 | 30.36 | 140 | 2 | 0.00 |
| 18 | 06/10 | 07:00 | 64 | 58 | 83 | 30.41 | 170 | 2 | 0.00 |
| 19 | 06/10 | 06:00 | 65 | 59 | 81 | 30.40 | 150 | 1 | 0.00 |
| 20 | 06/10 | 05:00 | 66 | 58 | 77 | 30.38 | 150 | 1 | 0.00 |
| 21 | 06/10 | 04:00 | 67 | 59 | 76 | 30.35 | 150 | 2 | 0.00 |
| 22 | 06/10 | 03:00 | 67 | 58 | 75 | 30.34 | 110 | 1 | 0.00 |
| 23 | 06/10 | 02:00 | 68 | 58 | 73 | 30.33 | 140 | 4 | 0.00 |
| 24 | 06/10 | 01:00 | 69 | 59 | 72 | 30.30 | 170 | 0 | 0.00 |